timestamp,wind_dir_avg,wind_spd_avg,wind_spd_max_dir,wind_spd_gust,battery_voltage,lat,long
2022-11-05 00:04:00+00:00,233.0,5.69,234.0,6.24,12.41,47.59359,-54.27349
2022-11-05 00:14:00+00:00,235.0,5.83,236.0,6.38,12.41,47.59359,-54.27349
2022-11-05 00:24:00+00:00,238.0,6.66,244.0,8.3,12.41,47.59359,-54.27349
2022-11-05 00:34:00+00:00,246.0,5.23,245.0,5.8,12.41,47.59359,-54.27349
2022-11-05 00:44:00+00:00,237.0,6.31,244.0,7.25,12.41,47.59359,-54.27349
2022-11-05 00:54:00+00:00,239.0,5.78,238.0,6.24,12.41,47.59359,-54.27349
2022-11-05 01:04:00+00:00,240.0,5.17,240.0,5.72,12.41,47.59359,-54.27349
2022-11-05 01:14:00+00:00,247.0,4.35,251.0,4.89,12.41,47.59359,-54.27349
2022-11-05 01:24:00+00:00,221.0,3.99,225.0,4.47,12.41,47.59359,-54.27349
2022-11-05 01:34:00+00:00,246.0,4.98,243.0,5.73,12.41,47.59359,-54.27349
2022-11-05 01:44:00+00:00,242.0,5.86,244.0,6.76,12.41,47.59359,-54.27349
2022-11-05 01:54:00+00:00,249.0,6.81,247.0,8.58,12.41,47.59359,-54.27349
2022-11-05 02:04:00+00:00,236.0,5.38,236.0,5.77,12.41,47.59359,-54.27349
2022-11-05 02:14:01+00:00,230.0,4.9,230.0,5.44,12.41,47.59359,-54.27349
2022-11-05 02:24:01+00:00,239.0,5.71,239.0,6.31,12.41,47.59359,-54.27349
2022-11-05 02:34:01+00:00,244.0,6.21,248.0,7.23,12.41,47.59359,-54.27349
2022-11-05 02:44:01+00:00,227.0,4.88,225.0,6.37,12.41,47.59359,-54.27349
2022-11-05 02:54:01+00:00,233.0,4.87,236.0,5.35,12.41,47.59359,-54.27349
2022-11-05 03:04:01+00:00,236.0,3.93,235.0,4.45,12.41,47.59359,-54.27349
2022-11-05 03:14:01+00:00,240.0,4.73,239.0,5.0,12.41,47.59359,-54.27349
2022-11-05 03:24:01+00:00,235.0,3.94,237.0,4.94,12.41,47.59359,-54.27349
2022-11-05 03:34:01+00:00,237.0,3.4,228.0,3.76,12.41,47.59359,-54.27349
2022-11-05 03:44:01+00:00,233.0,3.97,238.0,4.41,12.41,47.59359,-54.27349
2022-11-05 03:54:01+00:00,227.0,4.78,227.0,5.19,12.41,47.59359,-54.27349
2022-11-05 04:04:01+00:00,227.0,4.36,231.0,4.81,12.41,47.59359,-54.27349
2022-11-05 04:14:00+00:00,218.0,4.78,216.0,5.4,12.33,47.59359,-54.27349
2022-11-05 04:24:00+00:00,225.0,4.51,225.0,5.12,12.33,47.59359,-54.27349
2022-11-05 04:34:00+00:00,224.0,5.51,220.0,6.19,12.33,47.59359,-54.27349
2022-11-05 04:44:00+00:00,232.0,3.92,232.0,4.62,12.33,47.59359,-54.27349
2022-11-05 04:54:00+00:00,223.0,5.09,222.0,5.89,12.33,47.59359,-54.27349
2022-11-05 05:04:00+00:00,227.0,5.22,219.0,5.84,12.33,47.59359,-54.27349
2022-11-05 05:14:00+00:00,222.0,5.46,218.0,6.19,12.33,47.59359,-54.27349
2022-11-05 05:24:00+00:00,226.0,5.42,221.0,6.13,12.33,47.59359,-54.27349
2022-11-05 05:34:00+00:00,228.0,5.76,228.0,6.44,12.33,47.59359,-54.27349
2022-11-05 05:44:00+00:00,230.0,5.79,234.0,6.84,12.33,47.59359,-54.27349
2022-11-05 05:54:00+00:00,228.0,5.49,223.0,6.2,12.33,47.59359,-54.27349
2022-11-05 06:04:00+00:00,227.0,5.94,229.0,8.38,12.33,47.59359,-54.27349
2022-11-05 06:14:00+00:00,231.0,5.85,244.0,8.39,12.33,47.59359,-54.27349
2022-11-05 06:24:00+00:00,228.0,5.41,234.0,6.75,12.33,47.59359,-54.27349
2022-11-05 06:34:00+00:00,231.0,5.55,237.0,6.68,12.33,47.59359,-54.27349
2022-11-05 06:44:00+00:00,229.0,5.75,219.0,6.38,12.33,47.59359,-54.27349
2022-11-05 06:54:00+00:00,240.0,7.07,250.0,8.92,12.33,47.59359,-54.27349
2022-11-05 07:04:00+00:00,254.0,8.16,262.0,9.88,12.33,47.59359,-54.27349
2022-11-05 07:14:01+00:00,250.0,8.19,253.0,9.63,12.33,47.59359,-54.27349
2022-11-05 07:24:01+00:00,239.0,7.9,242.0,9.47,12.33,47.59359,-54.27349
2022-11-05 07:34:01+00:00,218.0,6.96,218.0,7.53,12.33,47.59359,-54.27349
2022-11-05 07:44:01+00:00,229.0,6.58,235.0,8.2,12.33,47.59359,-54.27349
2022-11-05 07:54:01+00:00,226.0,6.16,232.0,7.56,12.33,47.59359,-54.27349
2022-11-05 08:04:01+00:00,230.0,6.2,242.0,8.48,12.33,47.59359,-54.27349
2022-11-05 08:14:01+00:00,226.0,6.44,227.0,7.15,12.33,47.59359,-54.27349
2022-11-05 08:24:01+00:00,230.0,7.1,238.0,10.01,12.33,47.59359,-54.27349
2022-11-05 08:34:01+00:00,229.0,6.85,239.0,9.06,12.33,47.59359,-54.27349
2022-11-05 08:44:01+00:00,230.0,6.15,225.0,7.06,12.33,47.59359,-54.27349
2022-11-05 08:54:01+00:00,225.0,6.92,234.0,9.06,12.33,47.59359,-54.27349
2022-11-05 09:04:01+00:00,226.0,7.67,238.0,10.13,12.33,47.59359,-54.27349
2022-11-05 09:14:00+00:00,228.0,7.3,238.0,10.18,12.25,47.59359,-54.27349
2022-11-05 09:24:00+00:00,230.0,6.78,233.0,8.55,12.25,47.59359,-54.27349
2022-11-05 09:34:00+00:00,233.0,7.12,239.0,8.82,12.25,47.59359,-54.27349
2022-11-05 09:44:00+00:00,228.0,6.75,239.0,8.69,12.25,47.59359,-54.27349
2022-11-05 09:54:00+00:00,229.0,7.18,231.0,9.18,12.25,47.59359,-54.27349
2022-11-05 10:04:00+00:00,223.0,7.01,232.0,7.88,12.25,47.59359,-54.27349
2022-11-05 10:14:00+00:00,224.0,7.34,234.0,8.84,12.25,47.59359,-54.27349
2022-11-05 10:24:00+00:00,223.0,6.57,224.0,7.37,12.25,47.59359,-54.27349
2022-11-05 10:34:00+00:00,227.0,7.55,238.0,9.42,12.25,47.59359,-54.27349
2022-11-05 10:44:00+00:00,233.0,8.1,224.0,9.81,12.25,47.59359,-54.27349
2022-11-05 10:54:00+00:00,230.0,6.66,235.0,8.86,12.25,47.59359,-54.27349
2022-11-05 11:04:00+00:00,228.0,7.57,234.0,9.19,12.25,47.59359,-54.27349
2022-11-05 11:14:00+00:00,230.0,6.77,234.0,8.79,12.97,47.59359,-54.27349
2022-11-05 11:24:00+00:00,224.0,6.87,231.0,7.82,12.97,47.59359,-54.27349
2022-11-05 11:34:00+00:00,227.0,6.15,234.0,7.9,12.97,47.59359,-54.27349
2022-11-05 11:44:00+00:00,215.0,8.05,217.0,9.16,12.97,47.59359,-54.27349
2022-11-05 11:54:00+00:00,215.0,8.6,217.0,9.8,12.97,47.59359,-54.27349
2022-11-05 12:04:00+00:00,217.0,9.22,216.0,10.71,12.97,47.59359,-54.27349
2022-11-05 12:14:00+00:00,216.0,8.4,221.0,9.79,14.32,47.59359,-54.27349
2022-11-05 12:24:00+00:00,213.0,8.62,215.0,9.72,14.32,47.59359,-54.27349
2022-11-05 12:34:00+00:00,216.0,8.6,217.0,10.26,14.32,47.59359,-54.27349
2022-11-05 12:44:00+00:00,215.0,8.86,212.0,10.42,14.32,47.59359,-54.27349
2022-11-05 12:54:00+00:00,216.0,8.58,214.0,9.88,14.32,47.59359,-54.27349
2022-11-05 13:04:00+00:00,215.0,8.83,214.0,9.8,14.32,47.59359,-54.27349
2022-11-05 13:14:00+00:00,216.0,8.28,213.0,9.39,13.84,47.59359,-54.27349
2022-11-05 13:24:00+00:00,219.0,7.18,227.0,8.35,13.84,47.59359,-54.27349
2022-11-05 13:34:00+00:00,224.0,7.09,235.0,9.61,13.84,47.59359,-54.27349
2022-11-05 13:44:00+00:00,222.0,8.42,221.0,9.29,13.84,47.59359,-54.27349
2022-11-05 13:54:00+00:00,218.0,8.15,220.0,9.98,13.84,47.59359,-54.27349
2022-11-05 14:04:00+00:00,217.0,9.16,222.0,10.05,13.84,47.59359,-54.27349
2022-11-05 14:14:01+00:00,218.0,8.77,223.0,9.93,14.48,47.59359,-54.27349
2022-11-05 14:24:01+00:00,216.0,9.08,220.0,10.79,14.48,47.59359,-54.27349
2022-11-05 14:34:01+00:00,211.0,9.8,223.0,11.29,14.48,47.59359,-54.27349
2022-11-05 14:44:01+00:00,208.0,10.77,213.0,12.34,14.48,47.59359,-54.27349
2022-11-05 14:54:01+00:00,214.0,10.38,217.0,11.97,14.48,47.59359,-54.27349
2022-11-05 15:04:01+00:00,209.0,9.89,210.0,11.29,14.48,47.59359,-54.27349
2022-11-05 15:14:00+00:00,209.0,9.77,212.0,11.59,14.48,47.59359,-54.27349
2022-11-05 15:24:00+00:00,204.0,10.11,210.0,11.46,14.48,47.59359,-54.27349
2022-11-05 15:34:00+00:00,212.0,10.98,209.0,12.36,14.48,47.59359,-54.27349
2022-11-05 15:44:00+00:00,210.0,11.15,208.0,12.84,14.48,47.59359,-54.27349
2022-11-05 15:54:00+00:00,208.0,11.62,208.0,13.42,14.48,47.59359,-54.27349
2022-11-05 16:04:00+00:00,211.0,12.85,208.0,14.63,14.48,47.59359,-54.27349
2022-11-05 16:14:01+00:00,210.0,13.14,211.0,14.36,13.6,47.59359,-54.27349
2022-11-05 16:24:01+00:00,213.0,12.7,211.0,14.3,13.6,47.59359,-54.27349
2022-11-05 16:34:01+00:00,217.0,11.8,224.0,12.97,13.6,47.59359,-54.27349
2022-11-05 16:44:01+00:00,217.0,11.97,222.0,13.43,13.6,47.59359,-54.27349
2022-11-05 16:54:01+00:00,216.0,12.76,216.0,14.68,13.6,47.59359,-54.27349
2022-11-05 17:04:01+00:00,217.0,11.86,221.0,13.31,13.6,47.59359,-54.27349
2022-11-05 17:14:01+00:00,218.0,12.16,218.0,13.32,13.84,47.59359,-54.27349
2022-11-05 17:24:01+00:00,215.0,12.61,227.0,14.2,13.84,47.59359,-54.27349
2022-11-05 17:34:01+00:00,214.0,11.64,223.0,13.55,13.84,47.59359,-54.27349
2022-11-05 17:44:01+00:00,211.0,11.85,216.0,13.27,13.84,47.59359,-54.27349
2022-11-05 17:54:01+00:00,219.0,12.38,223.0,13.65,13.84,47.59359,-54.27349
2022-11-05 18:04:01+00:00,218.0,12.59,221.0,13.8,13.84,47.59359,-54.27349
2022-11-05 18:14:00+00:00,216.0,12.86,221.0,13.93,13.84,47.59359,-54.27349
2022-11-05 18:24:00+00:00,214.0,13.19,215.0,14.26,13.84,47.59359,-54.27349
2022-11-05 18:34:00+00:00,218.0,12.6,214.0,14.16,13.84,47.59359,-54.27349
2022-11-05 18:44:00+00:00,216.0,12.08,216.0,13.96,13.84,47.59359,-54.27349
2022-11-05 18:54:00+00:00,214.0,10.96,220.0,12.96,13.84,47.59359,-54.27349
2022-11-05 19:04:00+00:00,209.0,11.35,212.0,12.99,13.84,47.59359,-54.27349
2022-11-05 19:14:00+00:00,215.0,11.59,221.0,13.33,13.68,47.59359,-54.27349
2022-11-05 19:24:00+00:00,215.0,11.13,221.0,12.96,13.68,47.59359,-54.27349
2022-11-05 19:34:00+00:00,218.0,10.82,225.0,12.55,13.68,47.59359,-54.27349
2022-11-05 19:44:00+00:00,217.0,10.0,227.0,11.91,13.68,47.59359,-54.27349
2022-11-05 19:54:00+00:00,220.0,8.36,224.0,9.84,13.68,47.59359,-54.27349
2022-11-05 20:04:00+00:00,228.0,8.67,229.0,10.12,13.68,47.59359,-54.27349
2022-11-05 20:14:00+00:00,226.0,8.06,228.0,9.32,12.89,47.59359,-54.27349
2022-11-05 20:24:00+00:00,230.0,9.48,227.0,10.92,12.89,47.59359,-54.27349
2022-11-05 20:34:00+00:00,228.0,9.34,226.0,10.79,12.89,47.59359,-54.27349
2022-11-05 20:44:00+00:00,222.0,8.24,223.0,9.82,12.89,47.59359,-54.27349
2022-11-05 20:54:00+00:00,224.0,6.2,225.0,6.9,12.89,47.59359,-54.27349
2022-11-05 21:04:00+00:00,235.0,7.8,236.0,9.25,12.89,47.59359,-54.27349
2022-11-05 21:14:00+00:00,232.0,9.09,229.0,9.94,12.49,47.59359,-54.27349
2022-11-05 21:24:00+00:00,233.0,8.97,233.0,10.09,12.49,47.59359,-54.27349
2022-11-05 21:34:00+00:00,234.0,8.24,241.0,10.38,12.49,47.59359,-54.27349
2022-11-05 21:44:00+00:00,233.0,9.17,238.0,10.53,12.49,47.59359,-54.27349
2022-11-05 21:54:00+00:00,228.0,9.32,226.0,10.75,12.49,47.59359,-54.27349
2022-11-05 22:04:00+00:00,230.0,9.41,235.0,10.48,12.49,47.59359,-54.27349
2022-11-05 22:14:00+00:00,233.0,8.93,238.0,10.42,12.49,47.59359,-54.27349
2022-11-05 22:24:00+00:00,234.0,5.72,255.0,7.76,12.49,47.59359,-54.27349
2022-11-05 22:34:00+00:00,237.0,8.75,243.0,10.59,12.49,47.59359,-54.27349
2022-11-05 22:44:00+00:00,232.0,8.93,239.0,11.61,12.49,47.59359,-54.27349
2022-11-05 22:54:00+00:00,229.0,8.75,236.0,10.84,12.49,47.59359,-54.27349
2022-11-05 23:04:00+00:00,231.0,9.41,241.0,11.23,12.49,47.59359,-54.27349
2022-11-05 23:14:00+00:00,234.0,8.69,233.0,10.77,12.41,47.59359,-54.27349
2022-11-05 23:24:00+00:00,232.0,9.51,237.0,10.69,12.41,47.59359,-54.27349
2022-11-05 23:34:00+00:00,234.0,9.36,238.0,10.64,12.41,47.59359,-54.27349
2022-11-05 23:44:00+00:00,230.0,9.62,239.0,11.15,12.41,47.59359,-54.27349
2022-11-05 23:54:00+00:00,232.0,9.55,241.0,10.9,12.41,47.59359,-54.27349
